TimeMDT,TemperatureF,Dew PointF,Humidity,Sea Level PressureIn,VisibilityMPH,Wind Direction,Wind SpeedMPH,Gust SpeedMPH,PrecipitationIn,Events,Conditions,WindDirDegrees,DateUTC
12:51 AM,53.1,30.0,41,30.03,10.0,Calm,Calm,-,N/A,,Clear,0,2012-10-29 06:51:00
1:51 AM,48.9,30.0,48,30.02,10.0,Calm,Calm,-,N/A,,Clear,0,2012-10-29 07:51:00
2:51 AM,48.9,32.0,52,30.03,10.0,Calm,Calm,-,N/A,,Clear,0,2012-10-29 08:51:00
3:51 AM,46.9,28.9,50,30.03,10.0,Calm,Calm,-,N/A,,Clear,0,2012-10-29 09:51:00
4:51 AM,46.0,26.1,46,30.04,10.0,Calm,Calm,-,N/A,,Clear,0,2012-10-29 10:51:00
5:51 AM,45.0,28.0,52,30.05,10.0,Calm,Calm,-,N/A,,Clear,0,2012-10-29 11:51:00
6:51 AM,42.1,27.0,55,30.07,10.0,NE,3.5,-,N/A,,Clear,40,2012-10-29 12:51:00
7:51 AM,45.0,27.0,49,30.11,10.0,North,3.5,-,N/A,,Clear,10,2012-10-29 13:51:00
8:51 AM,51.1,26.1,38,30.13,10.0,NNE,5.8,-,N/A,,Partly Cloudy,20,2012-10-29 14:51:00
9:51 AM,55.0,27.0,34,30.12,10.0,North,4.6,-,N/A,,Partly Cloudy,350,2012-10-29 15:51:00
10:51 AM,62.1,28.0,28,30.12,10.0,Calm,Calm,-,N/A,,Partly Cloudy,0,2012-10-29 16:51:00
11:51 AM,68.0,28.9,23,30.09,10.0,Calm,Calm,-,N/A,,Partly Cloudy,0,2012-10-29 17:51:00
12:51 PM,73.0,30.9,21,30.04,10.0,SW,4.6,-,N/A,,Clear,230,2012-10-29 18:51:00
1:51 PM,75.9,26.1,16,30.00,10.0,Calm,Calm,-,N/A,,Clear,0,2012-10-29 19:51:00
2:51 PM,77.0,26.6,16,30.12,10.0,West,4.6,-,N/A,,Clear,270,2012-10-29 20:51:00
3:51 PM,79.0,24.1,13,29.96,10.0,Calm,Calm,-,N/A,,Clear,0,2012-10-29 21:51:00
4:51 PM,79.0,18.0,10,29.94,10.0,West,8.1,-,N/A,,Clear,280,2012-10-29 22:51:00
5:51 PM,78.1,19.9,11,29.95,10.0,West,8.1,-,N/A,,Clear,280,2012-10-29 23:51:00
6:51 PM,72.0,21.0,15,29.99,10.0,Calm,Calm,-,N/A,,Clear,0,2012-10-30 00:51:00
7:51 PM,68.0,23.0,18,29.99,10.0,SSE,3.5,-,N/A,,Clear,150,2012-10-30 01:51:00
8:51 PM,68.0,24.1,19,29.98,10.0,South,3.5,-,N/A,,Clear,180,2012-10-30 02:51:00
9:51 PM,61.0,26.1,26,30.00,10.0,South,8.1,-,N/A,,Clear,170,2012-10-30 03:51:00
10:51 PM,62.1,25.0,24,29.98,10.0,ESE,5.8,-,N/A,,Clear,120,2012-10-30 04:51:00
11:51 PM,60.1,24.1,25,29.96,10.0,SSE,4.6,-,N/A,,Clear,160,2012-10-30 05:51:00